Year,Month,Day,Hour,Minute,Value (Times are PST for temperature in C)
2020,12,04,00,00,5.90
2020,12,04,00,01,5.90
2020,12,04,00,02,5.90
2020,12,04,00,03,5.90
2020,12,04,00,04,5.90
2020,12,04,00,05,5.90
2020,12,04,00,06,5.90
2020,12,04,00,07,5.90
2020,12,04,00,08,5.90
2020,12,04,00,09,5.90
2020,12,04,00,10,5.90
2020,12,04,00,11,5.90
2020,12,04,00,12,5.90
2020,12,04,00,13,5.90
2020,12,04,00,14,5.90
2020,12,04,00,15,5.90
2020,12,04,00,16,5.90
2020,12,04,00,17,5.90
2020,12,04,00,18,5.90
2020,12,04,00,19,5.90
2020,12,04,00,20,5.90
2020,12,04,00,21,5.90
2020,12,04,00,22,5.80
2020,12,04,00,23,5.80
2020,12,04,00,24,5.80
2020,12,04,00,25,5.80
2020,12,04,00,26,5.80
2020,12,04,00,27,5.80
2020,12,04,00,28,5.80
2020,12,04,00,29,5.80
2020,12,04,00,30,5.80
2020,12,04,00,31,5.80
2020,12,04,00,32,5.70
2020,12,04,00,33,5.70
2020,12,04,00,34,5.70
2020,12,04,00,35,5.70
2020,12,04,00,36,5.70
2020,12,04,00,37,5.70
2020,12,04,00,38,5.70
2020,12,04,00,39,5.60
2020,12,04,00,40,5.60
2020,12,04,00,41,5.60
2020,12,04,00,42,5.60
2020,12,04,00,43,5.50
2020,12,04,00,44,5.50
2020,12,04,00,45,5.40
2020,12,04,00,46,5.40
2020,12,04,00,47,5.40
2020,12,04,00,48,5.30
2020,12,04,00,49,5.30
2020,12,04,00,50,5.30
2020,12,04,00,51,5.30
2020,12,04,00,52,5.20
2020,12,04,00,53,5.20
2020,12,04,00,54,5.20
2020,12,04,00,55,5.20
2020,12,04,00,56,5.10
2020,12,04,00,57,5.10
2020,12,04,00,58,5.10
2020,12,04,00,59,5.00
2020,12,04,01,00,5.00
2020,12,04,01,01,5.00
2020,12,04,01,02,4.90
2020,12,04,01,03,4.90
2020,12,04,01,04,4.90
2020,12,04,01,05,4.90
2020,12,04,01,06,4.80
2020,12,04,01,07,4.80
2020,12,04,01,08,4.80
2020,12,04,01,09,4.80
2020,12,04,01,10,4.80
2020,12,04,01,11,4.70
2020,12,04,01,12,4.70
2020,12,04,01,13,4.70
2020,12,04,01,14,4.60
2020,12,04,01,15,4.60
2020,12,04,01,16,4.60
2020,12,04,01,17,4.60
2020,12,04,01,18,4.50
2020,12,04,01,19,4.50
2020,12,04,01,20,4.40
2020,12,04,01,21,4.40
2020,12,04,01,22,4.40
2020,12,04,01,23,4.30
2020,12,04,01,24,4.30
2020,12,04,01,25,4.30
2020,12,04,01,26,4.30
2020,12,04,01,27,4.30
2020,12,04,01,28,4.20
2020,12,04,01,29,4.20
2020,12,04,01,30,4.20
2020,12,04,01,31,4.20
2020,12,04,01,32,4.20
2020,12,04,01,33,4.20
2020,12,04,01,34,4.10
2020,12,04,01,35,4.10
2020,12,04,01,36,4.10
2020,12,04,01,37,4.10
2020,12,04,01,38,4.00
2020,12,04,01,39,4.00
2020,12,04,01,40,4.00
2020,12,04,01,41,4.00
2020,12,04,01,42,3.90
2020,12,04,01,43,3.90
2020,12,04,01,44,3.90
2020,12,04,01,45,3.80
2020,12,04,01,46,3.80
2020,12,04,01,47,3.80
2020,12,04,01,48,3.80
2020,12,04,01,49,3.80
2020,12,04,01,50,3.80
2020,12,04,01,51,3.70
2020,12,04,01,52,3.70
2020,12,04,01,53,3.70
2020,12,04,01,54,3.70
2020,12,04,01,55,3.70
2020,12,04,01,56,3.70
2020,12,04,01,57,3.60
2020,12,04,01,58,3.60
2020,12,04,01,59,3.60
2020,12,04,02,00,3.60
2020,12,04,02,01,3.60
2020,12,04,02,02,3.60
2020,12,04,02,03,3.50
2020,12,04,02,04,3.50
2020,12,04,02,05,3.50
2020,12,04,02,06,3.40
2020,12,04,02,07,3.40
2020,12,04,02,08,3.40
2020,12,04,02,09,3.40
2020,12,04,02,10,3.40
2020,12,04,02,11,3.30
2020,12,04,02,12,3.30
2020,12,04,02,13,3.30
2020,12,04,02,14,3.30
2020,12,04,02,15,3.30
2020,12,04,02,16,3.30
2020,12,04,02,17,3.30
2020,12,04,02,18,3.30
2020,12,04,02,19,3.30
2020,12,04,02,20,3.30
2020,12,04,02,21,3.20
2020,12,04,02,22,3.20
2020,12,04,02,23,3.20
2020,12,04,02,24,3.20
2020,12,04,02,25,3.20
2020,12,04,02,26,3.20
2020,12,04,02,27,3.20
2020,12,04,02,28,3.20
2020,12,04,02,29,3.10
2020,12,04,02,30,3.10
2020,12,04,02,31,3.10
2020,12,04,02,32,3.10
2020,12,04,02,33,3.10
2020,12,04,02,34,3.00
2020,12,04,02,35,3.00
2020,12,04,02,36,3.00
2020,12,04,02,37,3.00
2020,12,04,02,38,2.90
2020,12,04,02,39,2.90
2020,12,04,02,40,2.90
2020,12,04,02,41,2.90
2020,12,04,02,42,2.90
2020,12,04,02,43,2.90
2020,12,04,02,44,2.90
2020,12,04,02,45,2.90
2020,12,04,02,46,2.90
2020,12,04,02,47,2.90
2020,12,04,02,48,2.80
2020,12,04,02,49,2.80
2020,12,04,02,50,2.80
2020,12,04,02,51,2.80
2020,12,04,02,52,2.80
2020,12,04,02,53,2.80
2020,12,04,02,54,2.80
2020,12,04,02,55,2.70
2020,12,04,02,56,2.70
2020,12,04,02,57,2.70
2020,12,04,02,58,2.70
2020,12,04,02,59,2.70
2020,12,04,03,00,2.70
2020,12,04,03,01,2.70
2020,12,04,03,02,2.70
2020,12,04,03,03,2.70
2020,12,04,03,04,2.60
2020,12,04,03,05,2.60
2020,12,04,03,06,2.60
2020,12,04,03,07,2.60
2020,12,04,03,08,2.60
2020,12,04,03,09,2.60
2020,12,04,03,10,2.60
2020,12,04,03,11,2.60
2020,12,04,03,12,2.50
2020,12,04,03,13,2.50
2020,12,04,03,14,2.50
2020,12,04,03,15,2.50
2020,12,04,03,16,2.50
2020,12,04,03,17,2.40
2020,12,04,03,18,2.40
2020,12,04,03,19,2.40
2020,12,04,03,20,2.40
2020,12,04,03,21,2.40
2020,12,04,03,22,2.40
2020,12,04,03,23,2.40
2020,12,04,03,24,2.40
2020,12,04,03,25,2.40
2020,12,04,03,26,2.30
2020,12,04,03,27,2.30
2020,12,04,03,28,2.30
2020,12,04,03,29,2.30
2020,12,04,03,30,2.30
2020,12,04,03,31,2.30
2020,12,04,03,32,2.20
2020,12,04,03,33,2.20
2020,12,04,03,34,2.20
2020,12,04,03,35,2.20
2020,12,04,03,36,2.20
2020,12,04,03,37,2.20
2020,12,04,03,38,2.20
2020,12,04,03,39,2.20
2020,12,04,03,40,2.20
2020,12,04,03,41,2.20
2020,12,04,03,42,2.10
2020,12,04,03,43,2.10
2020,12,04,03,44,2.10
2020,12,04,03,45,2.10
2020,12,04,03,46,2.10
2020,12,04,03,47,2.10
2020,12,04,03,48,2.10
2020,12,04,03,49,2.10
2020,12,04,03,50,2.10
2020,12,04,03,51,2.10
2020,12,04,03,52,2.10
2020,12,04,03,53,2.10
2020,12,04,03,54,2.00
2020,12,04,03,55,2.00
2020,12,04,03,56,2.00
2020,12,04,03,57,2.00
2020,12,04,03,58,1.90
2020,12,04,03,59,1.90
2020,12,04,04,00,1.90
2020,12,04,04,01,1.90
2020,12,04,04,02,1.90
2020,12,04,04,03,1.90
2020,12,04,04,04,1.90
2020,12,04,04,05,1.90
2020,12,04,04,06,1.90
2020,12,04,04,07,1.90
2020,12,04,04,08,1.90
2020,12,04,04,09,1.90
2020,12,04,04,10,1.90
2020,12,04,04,11,1.90
2020,12,04,04,12,1.90
2020,12,04,04,13,1.90
2020,12,04,04,14,1.90
2020,12,04,04,15,1.90
2020,12,04,04,16,1.90
2020,12,04,04,17,1.80
2020,12,04,04,18,1.80
2020,12,04,04,19,1.80
2020,12,04,04,20,1.80
2020,12,04,04,21,1.80
2020,12,04,04,22,1.80
2020,12,04,04,23,1.80
2020,12,04,04,24,1.80
2020,12,04,04,25,1.80
2020,12,04,04,26,1.80
2020,12,04,04,27,1.70
2020,12,04,04,28,1.70
2020,12,04,04,29,1.70
2020,12,04,04,30,1.70
2020,12,04,04,31,1.70
2020,12,04,04,32,1.70
2020,12,04,04,33,1.70
2020,12,04,04,34,1.70
2020,12,04,04,35,1.70
2020,12,04,04,36,1.60
2020,12,04,04,37,1.60
2020,12,04,04,38,1.60
2020,12,04,04,39,1.60
2020,12,04,04,40,1.60
2020,12,04,04,41,1.60
2020,12,04,04,42,1.60
2020,12,04,04,43,1.60
2020,12,04,04,44,1.60
2020,12,04,04,45,1.60
2020,12,04,04,46,1.60
2020,12,04,04,47,1.60
2020,12,04,04,48,1.60
2020,12,04,04,49,1.60
2020,12,04,04,50,1.60
2020,12,04,04,51,1.60
2020,12,04,04,52,1.60
2020,12,04,04,53,1.60
2020,12,04,04,54,1.60
2020,12,04,04,55,1.60
2020,12,04,04,56,1.60
2020,12,04,04,57,1.50
2020,12,04,04,58,1.50
2020,12,04,04,59,1.50
2020,12,04,05,00,1.50
2020,12,04,05,01,1.50
2020,12,04,05,02,1.50
2020,12,04,05,03,1.50
2020,12,04,05,04,1.50
2020,12,04,05,05,1.40
2020,12,04,05,06,1.40
2020,12,04,05,07,1.40
2020,12,04,05,08,1.40
2020,12,04,05,09,1.40
2020,12,04,05,10,1.40
2020,12,04,05,11,1.40
2020,12,04,05,12,1.40
2020,12,04,05,13,1.30
2020,12,04,05,14,1.30
2020,12,04,05,15,1.30
2020,12,04,05,16,1.30
2020,12,04,05,17,1.30
2020,12,04,05,18,1.30
2020,12,04,05,19,1.20
2020,12,04,05,20,1.20
2020,12,04,05,21,1.20
2020,12,04,05,22,1.20
2020,12,04,05,23,1.20
2020,12,04,05,24,1.20
2020,12,04,05,25,1.20
2020,12,04,05,26,1.20
2020,12,04,05,27,1.20
2020,12,04,05,28,1.20
2020,12,04,05,29,1.20
2020,12,04,05,30,1.20
2020,12,04,05,31,1.20
2020,12,04,05,32,1.20
2020,12,04,05,33,1.20
2020,12,04,05,34,1.20
2020,12,04,05,35,1.20
2020,12,04,05,36,1.20
2020,12,04,05,37,1.20
2020,12,04,05,38,1.20
2020,12,04,05,39,1.10
2020,12,04,05,40,1.10
2020,12,04,05,41,1.10
2020,12,04,05,42,1.00
2020,12,04,05,43,1.00
2020,12,04,05,44,1.00
2020,12,04,05,45,0.90
2020,12,04,05,46,0.90
2020,12,04,05,47,0.90
2020,12,04,05,48,0.90
2020,12,04,05,49,0.90
2020,12,04,05,50,0.90
2020,12,04,05,51,0.90
2020,12,04,05,52,0.90
2020,12,04,05,53,0.90
2020,12,04,05,54,0.90
2020,12,04,05,55,1.00
2020,12,04,05,56,1.00
2020,12,04,05,57,1.00
2020,12,04,05,58,1.00
2020,12,04,05,59,0.90
2020,12,04,06,00,0.90
2020,12,04,06,01,0.90
2020,12,04,06,02,0.90
2020,12,04,06,03,0.90
2020,12,04,06,04,0.90
2020,12,04,06,05,0.90
2020,12,04,06,06,0.90
2020,12,04,06,07,0.90
2020,12,04,06,08,0.90
2020,12,04,06,09,0.90
2020,12,04,06,10,0.90
2020,12,04,06,11,0.90
2020,12,04,06,12,0.90
2020,12,04,06,13,0.90
2020,12,04,06,14,0.80
2020,12,04,06,15,0.80
2020,12,04,06,16,0.80
2020,12,04,06,17,0.80
2020,12,04,06,18,0.80
2020,12,04,06,19,0.80
2020,12,04,06,20,0.80
2020,12,04,06,21,0.80
2020,12,04,06,22,0.80
2020,12,04,06,23,0.80
2020,12,04,06,24,0.80
2020,12,04,06,25,0.70
2020,12,04,06,26,0.70
2020,12,04,06,27,0.70
2020,12,04,06,28,0.70
2020,12,04,06,29,0.70
2020,12,04,06,30,0.70
2020,12,04,06,31,0.80
2020,12,04,06,32,0.80
2020,12,04,06,33,0.80
2020,12,04,06,34,0.80
2020,12,04,06,35,0.80
2020,12,04,06,36,0.80
2020,12,04,06,37,0.80
2020,12,04,06,38,0.80
2020,12,04,06,39,0.80
2020,12,04,06,40,0.80
2020,12,04,06,41,0.80
2020,12,04,06,42,0.80
2020,12,04,06,43,0.80
2020,12,04,06,44,0.80
2020,12,04,06,45,0.80
2020,12,04,06,46,0.80
2020,12,04,06,47,0.80
2020,12,04,06,48,0.80
2020,12,04,06,49,0.80
2020,12,04,06,50,0.80
2020,12,04,06,51,0.80
2020,12,04,06,52,0.80
2020,12,04,06,53,0.80
2020,12,04,06,54,0.80
2020,12,04,06,55,0.80
2020,12,04,06,56,0.80
2020,12,04,06,57,0.90
2020,12,04,06,58,0.90
2020,12,04,06,59,0.90
2020,12,04,07,00,0.90
2020,12,04,07,01,0.90
2020,12,04,07,02,0.90
2020,12,04,07,03,0.90
2020,12,04,07,04,0.90
2020,12,04,07,05,0.90
2020,12,04,07,06,0.90
2020,12,04,07,07,0.90
2020,12,04,07,08,0.90
2020,12,04,07,09,0.90
2020,12,04,07,10,0.90
2020,12,04,07,11,0.90
2020,12,04,07,12,0.90
2020,12,04,07,13,0.90
2020,12,04,07,14,1.00
2020,12,04,07,15,1.00
2020,12,04,07,16,1.00
2020,12,04,07,17,1.00
2020,12,04,07,18,1.10
2020,12,04,07,19,1.10
2020,12,04,07,20,1.10
2020,12,04,07,21,1.10
2020,12,04,07,22,1.10
2020,12,04,07,23,1.20
2020,12,04,07,24,1.20
2020,12,04,07,25,1.20
2020,12,04,07,26,1.20
2020,12,04,07,27,1.20
2020,12,04,07,28,1.20
2020,12,04,07,29,1.20
2020,12,04,07,30,1.20
2020,12,04,07,31,1.20
2020,12,04,07,32,1.20
2020,12,04,07,33,1.20
2020,12,04,07,34,1.20
2020,12,04,07,35,1.20
2020,12,04,07,36,1.20
2020,12,04,07,37,1.20
2020,12,04,07,38,1.20
2020,12,04,07,39,1.20
2020,12,04,07,40,1.20
2020,12,04,07,41,1.20
2020,12,04,07,42,1.20
2020,12,04,07,43,1.20
2020,12,04,07,44,1.20
2020,12,04,07,45,1.20
2020,12,04,07,46,1.20
2020,12,04,07,47,1.20
2020,12,04,07,48,1.20
2020,12,04,07,49,1.20
2020,12,04,07,50,1.20
2020,12,04,07,51,1.20
2020,12,04,07,52,1.20
2020,12,04,07,53,1.20
2020,12,04,07,54,1.20
2020,12,04,07,55,1.20
2020,12,04,07,56,1.20
2020,12,04,07,57,1.20
2020,12,04,07,58,1.20
2020,12,04,07,59,1.20
2020,12,04,08,00,1.20
2020,12,04,08,01,1.20
2020,12,04,08,02,1.20
2020,12,04,08,03,1.30
2020,12,04,08,04,1.20
2020,12,04,08,05,1.20
2020,12,04,08,06,1.20
2020,12,04,08,07,1.20
2020,12,04,08,08,1.20
2020,12,04,08,09,1.20
2020,12,04,08,10,1.20
2020,12,04,08,11,1.20
2020,12,04,08,12,1.20
2020,12,04,08,13,1.20
2020,12,04,08,14,1.20
2020,12,04,08,15,1.20
2020,12,04,08,16,1.20
2020,12,04,08,17,1.20
2020,12,04,08,18,1.20
2020,12,04,08,19,1.20
2020,12,04,08,20,1.20
2020,12,04,08,21,1.20
2020,12,04,08,22,1.20
2020,12,04,08,23,1.20
2020,12,04,08,24,1.20
2020,12,04,08,25,1.20
2020,12,04,08,26,1.20
2020,12,04,08,27,1.20
2020,12,04,08,28,1.20
2020,12,04,08,29,1.20
2020,12,04,08,30,1.20
2020,12,04,08,31,1.20
2020,12,04,08,32,1.20
2020,12,04,08,33,1.20
2020,12,04,08,34,1.20
2020,12,04,08,35,1.20
2020,12,04,08,36,1.20
2020,12,04,08,37,1.20
2020,12,04,08,38,1.20
2020,12,04,08,39,1.20
2020,12,04,08,40,1.30
2020,12,04,08,41,1.30
2020,12,04,08,42,1.30
2020,12,04,08,43,1.30
2020,12,04,08,44,1.30
2020,12,04,08,45,1.30
2020,12,04,08,46,1.30
2020,12,04,08,47,1.30
2020,12,04,08,48,1.40
2020,12,04,08,49,1.40
2020,12,04,08,50,1.40
2020,12,04,08,51,1.40
2020,12,04,08,52,1.40
2020,12,04,08,53,1.40
2020,12,04,08,54,1.50
2020,12,04,08,55,1.50
2020,12,04,08,56,1.60
2020,12,04,08,57,1.60
2020,12,04,08,58,1.60
2020,12,04,08,59,1.70
2020,12,04,09,00,1.80
2020,12,04,09,01,1.80
2020,12,04,09,02,1.90
2020,12,04,09,03,2.00
2020,12,04,09,04,2.00
2020,12,04,09,05,2.10
2020,12,04,09,06,2.20
2020,12,04,09,07,2.30
2020,12,04,09,08,2.30
2020,12,04,09,09,2.40
2020,12,04,09,10,2.50
2020,12,04,09,11,2.50
2020,12,04,09,12,2.60
2020,12,04,09,13,2.60
2020,12,04,09,14,2.70
2020,12,04,09,15,2.70
2020,12,04,09,16,2.80
2020,12,04,09,17,2.80
2020,12,04,09,18,2.90
2020,12,04,09,19,3.00
2020,12,04,09,20,3.00
2020,12,04,09,21,3.10
2020,12,04,09,22,3.20
2020,12,04,09,23,3.20
2020,12,04,09,24,3.30
2020,12,04,09,25,3.40
2020,12,04,09,26,3.40
2020,12,04,09,27,3.50
2020,12,04,09,28,3.60
2020,12,04,09,29,3.60
2020,12,04,09,30,3.70
2020,12,04,09,31,3.80
2020,12,04,09,32,3.90
2020,12,04,09,33,4.00
2020,12,04,09,34,4.00
2020,12,04,09,35,4.10
2020,12,04,09,36,4.20
2020,12,04,09,37,4.20
2020,12,04,09,38,4.30
2020,12,04,09,39,4.30
2020,12,04,09,40,4.40
2020,12,04,09,41,4.40
2020,12,04,09,42,4.50
2020,12,04,09,43,4.50
2020,12,04,09,44,4.50
2020,12,04,09,45,4.50
2020,12,04,09,46,4.50
2020,12,04,09,47,4.60
2020,12,04,09,48,4.70
2020,12,04,09,49,4.70
2020,12,04,09,50,4.80
2020,12,04,09,51,4.90
2020,12,04,09,52,4.90
2020,12,04,09,53,5.00
2020,12,04,09,54,5.10
2020,12,04,09,55,5.10
2020,12,04,09,56,5.10
2020,12,04,09,57,5.20
2020,12,04,09,58,5.20
2020,12,04,09,59,5.20
2020,12,04,10,00,5.30
2020,12,04,10,01,5.30
2020,12,04,10,02,5.40
2020,12,04,10,03,5.40
2020,12,04,10,04,5.50
2020,12,04,10,05,5.50
2020,12,04,10,06,5.60
2020,12,04,10,07,5.60
2020,12,04,10,08,5.70
2020,12,04,10,09,5.70
2020,12,04,10,10,5.80
2020,12,04,10,11,5.90
2020,12,04,10,12,5.90
2020,12,04,10,13,6.00
2020,12,04,10,14,6.10
2020,12,04,10,15,6.20
2020,12,04,10,16,6.20
2020,12,04,10,17,6.20
2020,12,04,10,18,6.30
2020,12,04,10,19,6.30
2020,12,04,10,20,6.30
2020,12,04,10,21,6.30
2020,12,04,10,22,6.30
2020,12,04,10,23,6.40
2020,12,04,10,24,6.40
2020,12,04,10,25,6.50
2020,12,04,10,26,6.50
2020,12,04,10,27,6.50
2020,12,04,10,28,6.60
2020,12,04,10,29,6.60
2020,12,04,10,30,6.60
2020,12,04,10,31,6.60
2020,12,04,10,32,6.70
2020,12,04,10,33,6.70
2020,12,04,10,34,6.70
2020,12,04,10,35,6.80
2020,12,04,10,36,6.80
2020,12,04,10,37,6.90
2020,12,04,10,38,7.00
2020,12,04,10,39,7.00
2020,12,04,10,40,7.10
2020,12,04,10,41,7.10
2020,12,04,10,42,7.20
2020,12,04,10,43,7.20
2020,12,04,10,44,7.30
2020,12,04,10,45,7.30
2020,12,04,10,46,7.40
2020,12,04,10,47,7.50
2020,12,04,10,48,7.50
2020,12,04,10,49,7.60
2020,12,04,10,50,7.60
2020,12,04,10,51,7.60
2020,12,04,10,52,7.70
2020,12,04,10,53,7.70
2020,12,04,10,54,7.70
2020,12,04,10,55,7.70
2020,12,04,10,56,7.70
2020,12,04,10,57,7.70
2020,12,04,10,58,7.70
2020,12,04,10,59,7.70
2020,12,04,11,00,7.70
2020,12,04,11,01,7.60
2020,12,04,11,02,7.60
2020,12,04,11,03,7.60
2020,12,04,11,04,7.60
2020,12,04,11,05,7.60
2020,12,04,11,06,7.60
2020,12,04,11,07,7.60
2020,12,04,11,08,7.50
2020,12,04,11,09,7.50
2020,12,04,11,10,7.40
2020,12,04,11,11,7.40
2020,12,04,11,12,7.40
2020,12,04,11,13,7.40
2020,12,04,11,14,7.40
2020,12,04,11,15,7.50
2020,12,04,11,16,7.50
2020,12,04,11,17,7.60
2020,12,04,11,18,7.60
2020,12,04,11,19,7.70
2020,12,04,11,20,7.70
2020,12,04,11,21,7.80
2020,12,04,11,22,7.90
2020,12,04,11,23,7.90
2020,12,04,11,24,8.00
2020,12,04,11,25,8.10
2020,12,04,11,26,8.10
2020,12,04,11,27,8.20
2020,12,04,11,28,8.20
2020,12,04,11,29,8.20
2020,12,04,11,30,8.30
2020,12,04,11,31,8.30
2020,12,04,11,32,8.30
2020,12,04,11,33,8.30
2020,12,04,11,34,8.40
2020,12,04,11,35,8.40
2020,12,04,11,36,8.40
2020,12,04,11,37,8.50
2020,12,04,11,38,8.50
2020,12,04,11,39,8.50
2020,12,04,11,40,8.60
2020,12,04,11,41,8.60
2020,12,04,11,42,8.60
2020,12,04,11,43,8.60
2020,12,04,11,44,8.60
2020,12,04,11,45,8.60
2020,12,04,11,46,8.70
2020,12,04,11,47,8.70
2020,12,04,11,48,8.80
2020,12,04,11,49,8.90
2020,12,04,11,50,9.00
2020,12,04,11,51,9.00
2020,12,04,11,52,9.10
2020,12,04,11,53,9.20
2020,12,04,11,54,9.20
2020,12,04,11,55,9.20
2020,12,04,11,56,9.30
2020,12,04,11,57,9.30
2020,12,04,11,58,9.30
2020,12,04,11,59,9.40
2020,12,04,12,00,9.40
2020,12,04,12,01,9.50
2020,12,04,12,02,9.50
2020,12,04,12,03,9.60
2020,12,04,12,04,9.60
2020,12,04,12,05,9.60
2020,12,04,12,06,9.60
2020,12,04,12,07,9.60
2020,12,04,12,08,9.60
2020,12,04,12,09,9.60
2020,12,04,12,10,9.60
2020,12,04,12,11,9.60
2020,12,04,12,12,9.60
2020,12,04,12,13,9.60
2020,12,04,12,14,9.60
2020,12,04,12,15,9.50
2020,12,04,12,16,9.50
2020,12,04,12,17,9.60
2020,12,04,12,18,9.60
2020,12,04,12,19,9.60
2020,12,04,12,20,9.60
2020,12,04,12,21,9.70
2020,12,04,12,22,9.70
2020,12,04,12,23,9.70
2020,12,04,12,24,9.70
2020,12,04,12,25,9.70
2020,12,04,12,26,9.80
2020,12,04,12,27,9.80
2020,12,04,12,28,9.80
2020,12,04,12,29,9.80
2020,12,04,12,30,9.80
2020,12,04,12,31,9.90
2020,12,04,12,32,9.90
2020,12,04,12,33,9.90
2020,12,04,12,34,9.90
2020,12,04,12,35,10.00
2020,12,04,12,36,10.00
2020,12,04,12,37,10.10
2020,12,04,12,38,10.10
2020,12,04,12,39,10.20
2020,12,04,12,40,10.30
2020,12,04,12,41,10.40
2020,12,04,12,42,10.40
2020,12,04,12,43,10.40
2020,12,04,12,44,10.50
2020,12,04,12,45,10.60
2020,12,04,12,46,10.60
2020,12,04,12,47,10.70
2020,12,04,12,48,10.70
2020,12,04,12,49,10.80
2020,12,04,12,50,10.80
2020,12,04,12,51,10.80
2020,12,04,12,52,10.90
2020,12,04,12,53,10.90
2020,12,04,12,54,10.90
2020,12,04,12,55,11.00
2020,12,04,12,56,11.00
2020,12,04,12,57,11.10
2020,12,04,12,58,11.10
2020,12,04,12,59,11.20
2020,12,04,13,00,11.20
2020,12,04,13,01,11.20
2020,12,04,13,02,11.30
2020,12,04,13,03,11.40
2020,12,04,13,04,11.40
2020,12,04,13,05,11.50
2020,12,04,13,06,11.60
2020,12,04,13,07,11.60
2020,12,04,13,08,11.70
2020,12,04,13,09,11.70
2020,12,04,13,10,11.70
2020,12,04,13,11,11.80
2020,12,04,13,12,11.80
2020,12,04,13,13,11.80
2020,12,04,13,14,11.90
2020,12,04,13,15,11.90
2020,12,04,13,16,11.90
2020,12,04,13,17,11.90
2020,12,04,13,18,11.90
2020,12,04,13,19,11.90
2020,12,04,13,20,12.00
2020,12,04,13,21,12.10
2020,12,04,13,22,12.10
2020,12,04,13,23,12.10
2020,12,04,13,24,12.20
2020,12,04,13,25,12.20
2020,12,04,13,26,12.30
2020,12,04,13,27,12.30
2020,12,04,13,28,12.30
2020,12,04,13,29,12.40
2020,12,04,13,30,12.40
2020,12,04,13,31,12.40
2020,12,04,13,32,12.40
2020,12,04,13,33,12.50
2020,12,04,13,34,12.50
2020,12,04,13,35,12.60
2020,12,04,13,36,12.60
2020,12,04,13,37,12.60
2020,12,04,13,38,12.70
2020,12,04,13,39,12.70
2020,12,04,13,40,12.70
2020,12,04,13,41,12.70
2020,12,04,13,42,12.70
2020,12,04,13,43,12.70
2020,12,04,13,44,12.70
2020,12,04,13,45,12.70
2020,12,04,13,46,12.70
2020,12,04,13,47,12.70
2020,12,04,13,48,12.70
2020,12,04,13,49,12.70
2020,12,04,13,50,12.70
2020,12,04,13,51,12.70
2020,12,04,13,52,12.70
2020,12,04,13,53,12.80
2020,12,04,13,54,12.80
2020,12,04,13,55,12.80
2020,12,04,13,56,12.80
2020,12,04,13,57,12.80
2020,12,04,13,58,12.80
2020,12,04,13,59,12.80
2020,12,04,14,00,12.80
2020,12,04,14,01,12.80
2020,12,04,14,02,12.80
2020,12,04,14,03,12.80
2020,12,04,14,04,12.80
2020,12,04,14,05,12.80
2020,12,04,14,06,12.70
2020,12,04,14,07,12.70
2020,12,04,14,08,12.70
2020,12,04,14,09,12.70
2020,12,04,14,10,12.70
2020,12,04,14,11,12.70
2020,12,04,14,12,12.70
2020,12,04,14,13,12.70
2020,12,04,14,14,12.70
2020,12,04,14,15,12.70
2020,12,04,14,16,12.70
2020,12,04,14,17,12.70
2020,12,04,14,18,12.70
2020,12,04,14,19,12.70
2020,12,04,14,20,12.70
2020,12,04,14,21,12.70
2020,12,04,14,22,12.70
2020,12,04,14,23,12.70
2020,12,04,14,24,12.70
2020,12,04,14,25,12.70
2020,12,04,14,26,12.70
2020,12,04,14,27,12.70
2020,12,04,14,28,12.70
2020,12,04,14,29,12.70
2020,12,04,14,30,12.70
2020,12,04,14,31,12.70
2020,12,04,14,32,12.70
2020,12,04,14,33,12.60
2020,12,04,14,34,12.60
2020,12,04,14,35,12.60
2020,12,04,14,36,12.60
2020,12,04,14,37,12.60
2020,12,04,14,38,12.60
2020,12,04,14,39,12.60
2020,12,04,14,40,12.60
2020,12,04,14,41,12.50
2020,12,04,14,42,12.50
2020,12,04,14,43,12.40
2020,12,04,14,44,12.40
2020,12,04,14,45,12.40
2020,12,04,14,46,12.40
2020,12,04,14,47,12.40
2020,12,04,14,48,12.30
2020,12,04,14,49,12.30
2020,12,04,14,50,12.30
2020,12,04,14,51,12.40
2020,12,04,14,52,12.40
2020,12,04,14,53,12.40
2020,12,04,14,54,12.40
2020,12,04,14,55,12.50
2020,12,04,14,56,12.50
2020,12,04,14,57,12.60
2020,12,04,14,58,12.60
2020,12,04,14,59,12.60
2020,12,04,15,00,12.60
2020,12,04,15,01,12.60
2020,12,04,15,02,12.60
2020,12,04,15,03,12.50
2020,12,04,15,04,12.50
2020,12,04,15,05,12.50
2020,12,04,15,06,12.50
2020,12,04,15,07,12.50
2020,12,04,15,08,12.40
2020,12,04,15,09,12.40
2020,12,04,15,10,12.40
2020,12,04,15,11,12.40
2020,12,04,15,12,12.40
2020,12,04,15,13,12.40
2020,12,04,15,14,12.40
2020,12,04,15,15,12.40
2020,12,04,15,16,12.30
2020,12,04,15,17,12.30
2020,12,04,15,18,12.30
2020,12,04,15,19,12.20
2020,12,04,15,20,12.20
2020,12,04,15,21,12.10
2020,12,04,15,22,12.10
2020,12,04,15,23,12.10
2020,12,04,15,24,12.00
2020,12,04,15,25,11.90
2020,12,04,15,26,11.80
2020,12,04,15,27,11.80
2020,12,04,15,28,11.80
2020,12,04,15,29,11.70
2020,12,04,15,30,11.60
2020,12,04,15,31,11.60
2020,12,04,15,32,11.50
2020,12,04,15,33,11.40
2020,12,04,15,34,11.40
2020,12,04,15,35,11.30
2020,12,04,15,36,11.30
2020,12,04,15,37,11.20
2020,12,04,15,38,11.10
2020,12,04,15,39,11.00
2020,12,04,15,40,11.00
2020,12,04,15,41,10.90
2020,12,04,15,42,10.80
2020,12,04,15,43,10.70
2020,12,04,15,44,10.60
2020,12,04,15,45,10.50
2020,12,04,15,46,10.40
2020,12,04,15,47,10.30
2020,12,04,15,48,10.30
2020,12,04,15,49,10.20
2020,12,04,15,50,10.20
2020,12,04,15,51,10.10
2020,12,04,15,52,10.00
2020,12,04,15,53,9.90
2020,12,04,15,54,9.80
2020,12,04,15,55,9.70
2020,12,04,15,56,9.60
2020,12,04,15,57,9.50
2020,12,04,15,58,9.40
2020,12,04,15,59,9.30
2020,12,04,16,00,9.20
2020,12,04,16,01,9.10
2020,12,04,16,02,9.00
2020,12,04,16,03,8.90
2020,12,04,16,04,8.90
2020,12,04,16,05,8.80
2020,12,04,16,06,8.70
2020,12,04,16,07,8.70
2020,12,04,16,08,8.60
2020,12,04,16,09,8.60
2020,12,04,16,10,8.50
2020,12,04,16,11,8.50
2020,12,04,16,12,8.40
2020,12,04,16,13,8.40
2020,12,04,16,14,8.30
2020,12,04,16,15,8.30
2020,12,04,16,16,8.30
2020,12,04,16,17,8.20
2020,12,04,16,18,8.20
2020,12,04,16,19,8.20
2020,12,04,16,20,8.10
2020,12,04,16,21,8.10
2020,12,04,16,22,8.00
2020,12,04,16,23,8.00
2020,12,04,16,24,7.90
2020,12,04,16,25,7.90
2020,12,04,16,26,7.80
2020,12,04,16,27,7.80
2020,12,04,16,28,7.80
2020,12,04,16,29,7.70
2020,12,04,16,30,7.60
2020,12,04,16,31,7.60
2020,12,04,16,32,7.50
2020,12,04,16,33,7.40
2020,12,04,16,34,7.40
2020,12,04,16,35,7.30
2020,12,04,16,36,7.20
2020,12,04,16,37,7.10
2020,12,04,16,38,7.10
2020,12,04,16,39,7.00
2020,12,04,16,40,6.90
2020,12,04,16,41,6.90
2020,12,04,16,42,6.90
2020,12,04,16,43,6.80
2020,12,04,16,44,6.80
2020,12,04,16,45,6.80
2020,12,04,16,46,6.70
2020,12,04,16,47,6.70
2020,12,04,16,48,6.70
2020,12,04,16,49,6.60
2020,12,04,16,50,6.60
2020,12,04,16,51,6.50
2020,12,04,16,52,6.50
2020,12,04,16,53,6.50
2020,12,04,16,54,6.40
2020,12,04,16,55,6.40
2020,12,04,16,56,6.30
2020,12,04,16,57,6.30
2020,12,04,16,58,6.30
2020,12,04,16,59,6.30
2020,12,04,17,00,6.20
2020,12,04,17,01,6.20
2020,12,04,17,02,6.20
2020,12,04,17,03,6.10
2020,12,04,17,04,6.10
2020,12,04,17,05,6.00
2020,12,04,17,06,6.00
2020,12,04,17,07,5.90
2020,12,04,17,08,5.90
2020,12,04,17,09,5.80
2020,12,04,17,10,5.80
2020,12,04,17,11,5.80
2020,12,04,17,12,5.70
2020,12,04,17,13,5.70
2020,12,04,17,14,5.60
2020,12,04,17,15,5.60
2020,12,04,17,16,5.60
2020,12,04,17,17,5.50
2020,12,04,17,18,5.50
2020,12,04,17,19,5.40
2020,12,04,17,20,5.40
2020,12,04,17,21,5.40
2020,12,04,17,22,5.30
2020,12,04,17,23,5.30
2020,12,04,17,24,5.30
2020,12,04,17,25,5.20
2020,12,04,17,26,5.20
2020,12,04,17,27,5.10
2020,12,04,17,28,5.10
2020,12,04,17,29,5.10
2020,12,04,17,30,5.00
2020,12,04,17,31,5.00
2020,12,04,17,32,4.90
2020,12,04,17,33,4.90
2020,12,04,17,34,4.80
2020,12,04,17,35,4.80
2020,12,04,17,36,4.80
2020,12,04,17,37,4.70
2020,12,04,17,38,4.70
2020,12,04,17,39,4.70
2020,12,04,17,40,4.70
2020,12,04,17,41,4.70
2020,12,04,17,42,4.70
2020,12,04,17,43,4.60
2020,12,04,17,44,4.60
2020,12,04,17,45,4.60
2020,12,04,17,46,4.60
2020,12,04,17,47,4.60
2020,12,04,17,48,4.60
2020,12,04,17,49,4.50
2020,12,04,17,50,4.50
2020,12,04,17,51,4.50
2020,12,04,17,52,4.50
2020,12,04,17,53,4.40
2020,12,04,17,54,4.40
2020,12,04,17,55,4.40
2020,12,04,17,56,4.40
2020,12,04,17,57,4.30